Weather History for Duncan, OK

Change the Weather History Date:

Saturday, March 2, 2013

  Actual Average (KLAW) Record (KLAW)
Temperature  
Mean Temperature 40 °F -  
Max Temperature 53 °F 63 °F 86 °F (1974)
Min Temperature 26 °F 37 °F 9 °F (1980)
Degree Days  
Heating Degree Days 26    
Moisture  
Dew Point 30 °F    
Average Humidity 74    
Maximum Humidity 100    
Minimum Humidity 44    
Precipitation  
Precipitation 0.00 in - - ()
Sea Level Pressure  
Sea Level Pressure 30.32 in    
Wind  
Wind Speed 6 mph (NNW)    
Max Wind Speed 12 mph    
Max Gust Speed -    
Visibility 10 miles    
Events      
Averages and records for this station are not official NWS values.
T = Trace of Precipitation, MM = Missing Value Source: NWS Daily Summary

Daily Weather History Graph

Daily Weather History Graph

Search for Another Location

Airport:

Trip Planner

Search our weather history database for the weather conditions in past years. The results will help you decide how hot, cold, wet, or windy it might be!

Date:

Astronomy

Mar. 02, 2013 Rise Set
Actual Time 6:59 AM CST 6:29 PM CST
Civil Twilight 6:34 AM CST 6:54 PM CST
Nautical Twilight 6:04 AM CST 7:23 PM CST
Astronomical Twilight 5:35 AM CST 7:52 PM CST
Moon 11:53 PM CST (3/2) 9:43 AM CST (3/2)
Length of Visible Light 12h 20m
Length of Day
11h 29m
Waning Gibbous, 74% of the Moon is Illuminated
Mar 2
Waning Gibbous
Mar 4
Last Quarter
Mar 11
New
Mar 19
First Quarter
Mar 27
Full

Hourly Weather History & Observations

Time (CST) Temp. Windchill Dew Point Humidity Pressure Visibility Wind Dir Wind Speed Gust Speed Precip Events Conditions
12:15 AM 32.0 °F 26.4 °F 30.2 °F 93% 30.35 in 10.0 mi NNW 5.8 mph - N/A   Clear
12:35 AM 32.0 °F 26.4 °F 30.2 °F 93% 30.35 in 10.0 mi NNW 5.8 mph - N/A   Clear
12:55 AM 32.0 °F 26.4 °F 30.2 °F 93% 30.36 in 10.0 mi NNW 5.8 mph - N/A   Clear
1:15 AM 32.0 °F 26.4 °F 30.2 °F 93% 30.36 in 10.0 mi NW 5.8 mph - N/A   Clear
1:35 AM 30.2 °F 24.3 °F 28.4 °F 93% 30.36 in 10.0 mi NW 5.8 mph - N/A   Clear
1:55 AM 30.2 °F 24.3 °F 28.4 °F 93% 30.37 in 10.0 mi NW 5.8 mph - N/A   Clear
2:15 AM 30.2 °F 24.3 °F 28.4 °F 93% 30.37 in 10.0 mi NW 5.8 mph - N/A   Clear
2:35 AM 28.4 °F 22.2 °F 28.4 °F 100% 30.37 in 10.0 mi NW 5.8 mph - N/A   Clear
2:55 AM 28.4 °F 21.2 °F 28.4 °F 100% 30.37 in 10.0 mi NW 6.9 mph - N/A   Clear
3:15 AM 28.4 °F 22.2 °F 28.4 °F 100% 30.37 in 10.0 mi NW 5.8 mph - N/A   Clear
3:35 AM 28.4 °F 21.2 °F 28.4 °F 100% 30.37 in 10.0 mi NW 6.9 mph - N/A   Clear
3:55 AM 28.4 °F 20.4 °F 28.4 °F 100% 30.37 in 10.0 mi NW 8.1 mph - N/A   Clear
4:15 AM 28.4 °F 22.2 °F 28.4 °F 100% 30.37 in 10.0 mi NNW 5.8 mph - N/A   Clear
4:35 AM 28.4 °F 22.2 °F 28.4 °F 100% 30.37 in 10.0 mi NW 5.8 mph - N/A   Clear
4:55 AM 28.4 °F 22.2 °F 28.4 °F 100% 30.37 in 10.0 mi NNW 5.8 mph - N/A   Clear
5:15 AM 28.4 °F 22.2 °F 28.4 °F 100% 30.37 in 10.0 mi NNW 5.8 mph - N/A   Clear
5:35 AM 28.4 °F 22.2 °F 26.6 °F 93% 30.37 in 10.0 mi NNW 5.8 mph - N/A   Clear
5:55 AM 28.4 °F 21.2 °F 26.6 °F 93% 30.37 in 10.0 mi NNW 6.9 mph - N/A   Clear
6:15 AM 28.4 °F 22.2 °F 26.6 °F 93% 30.37 in 10.0 mi North 5.8 mph - N/A   Clear
6:35 AM 28.4 °F 20.4 °F 26.6 °F 93% 30.38 in 10.0 mi North 8.1 mph - N/A   Clear
6:55 AM 28.4 °F 22.2 °F 26.6 °F 93% 30.39 in 10.0 mi NW 5.8 mph - N/A   Clear
7:15 AM 26.6 °F 20.0 °F 26.6 °F 100% 30.40 in 10.0 mi NNW 5.8 mph - N/A   Clear
7:35 AM 28.4 °F 23.3 °F 26.6 °F 93% 30.40 in 10.0 mi NNW 4.6 mph - N/A   Clear
7:55 AM 30.2 °F 24.3 °F 28.4 °F 93% 30.41 in 10.0 mi NNW 5.8 mph - N/A   Clear
8:15 AM 30.2 °F 24.3 °F 28.4 °F 93% 30.41 in 10.0 mi NW 5.8 mph - N/A   Clear
8:35 AM 32.0 °F 26.4 °F 28.4 °F 87% 30.41 in 10.0 mi NNW 5.8 mph - N/A   Clear
8:55 AM 32.0 °F 26.4 °F 28.4 °F 87% 30.41 in 10.0 mi NNW 5.8 mph - N/A   Clear
9:15 AM 33.8 °F 27.0 °F 28.4 °F 81% 30.42 in 10.0 mi NNW 8.1 mph - N/A   Clear
9:35 AM 33.8 °F 27.7 °F 28.4 °F 81% 30.42 in 10.0 mi NNW 6.9 mph - N/A   Clear
9:55 AM 35.6 °F 27.5 °F 28.4 °F 75% 30.42 in 10.0 mi NNW 11.5 mph - N/A   Clear
10:15 AM 37.4 °F 31.4 °F 28.4 °F 70% 30.41 in 10.0 mi North 8.1 mph - N/A   Clear
10:35 AM 39.2 °F 33.6 °F 28.4 °F 65% 30.40 in 10.0 mi North 8.1 mph - N/A   Clear
10:55 AM 39.2 °F 35.9 °F 26.6 °F 61% 30.40 in 10.0 mi North 4.6 mph - N/A   Clear
11:15 AM 41.0 °F 38.0 °F 26.6 °F 57% 30.39 in 10.0 mi North 4.6 mph - N/A   Clear
11:35 AM 42.8 °F - 26.6 °F 53% 30.39 in 10.0 mi Calm Calm - N/A   Clear
11:55 AM 44.6 °F 40.2 °F 26.6 °F 49% 30.38 in 10.0 mi West 8.1 mph - N/A   Clear
12:35 PM 46.4 °F 45.2 °F 28.4 °F 50% 30.36 in 10.0 mi WNW 3.5 mph - N/A   Clear
12:55 PM 46.4 °F 42.9 °F 28.4 °F 50% 30.35 in 10.0 mi WNW 6.9 mph - N/A   Clear
1:15 PM 48.2 °F - 28.4 °F 46% 30.33 in 10.0 mi NW 9.2 mph - N/A   Clear
1:35 PM 48.2 °F - 30.2 °F 50% 30.31 in 10.0 mi West 5.8 mph - N/A   Clear
1:55 PM 50.0 °F - 30.2 °F 47% 30.30 in 10.0 mi Calm Calm - N/A   Clear
2:15 PM 50.0 °F - 30.2 °F 47% 30.28 in 10.0 mi Calm Calm - N/A   Clear
2:35 PM 51.8 °F - 30.2 °F 44% 30.27 in 10.0 mi NW 3.5 mph - N/A   Clear
2:55 PM 51.8 °F - 32.0 °F 47% 30.27 in 10.0 mi Calm Calm - N/A   Clear
3:15 PM 51.8 °F - 32.0 °F 47% 30.27 in 10.0 mi NNW 5.8 mph - N/A   Clear
3:55 PM 53.6 °F - 33.8 °F 47% 30.26 in 10.0 mi West 5.8 mph - N/A   Clear
4:15 PM 53.6 °F - 33.8 °F 47% 30.25 in 10.0 mi WNW 5.8 mph - N/A   Clear
4:35 PM 53.6 °F - 33.8 °F 47% 30.25 in 10.0 mi South 3.5 mph - N/A   Clear
4:55 PM 53.6 °F - 33.8 °F 47% 30.25 in 10.0 mi WNW 3.5 mph - N/A   Clear
5:15 PM 53.6 °F - 33.8 °F 47% 30.24 in 10.0 mi WSW 4.6 mph - N/A   Clear
5:35 PM 53.6 °F - 33.8 °F 47% 30.24 in 10.0 mi Calm Calm - N/A   Clear
5:55 PM 51.8 °F - 33.8 °F 50% 30.23 in 10.0 mi Calm Calm - N/A   Clear
6:15 PM 51.8 °F - 33.8 °F 50% 30.23 in 10.0 mi SSE 3.5 mph - N/A   Clear
6:35 PM 50.0 °F - 33.8 °F 54% 30.23 in 10.0 mi SE 3.5 mph - N/A   Clear
6:55 PM 48.2 °F - 33.8 °F 58% 30.23 in 10.0 mi SE 4.6 mph - N/A   Clear
7:15 PM 46.4 °F 43.5 °F 33.8 °F 62% 30.23 in 10.0 mi SE 5.8 mph - N/A   Clear
7:35 PM 44.6 °F 41.4 °F 33.8 °F 66% 30.22 in 10.0 mi SSE 5.8 mph - N/A   Clear
7:55 PM 44.6 °F 41.4 °F 33.8 °F 66% 30.22 in 10.0 mi SSE 5.8 mph - N/A   Clear
8:15 PM 44.6 °F 41.4 °F 33.8 °F 66% 30.22 in 10.0 mi SE 5.8 mph - N/A   Clear
8:35 PM 42.8 °F 40.1 °F 33.8 °F 70% 30.22 in 10.0 mi SE 4.6 mph - N/A   Clear
8:55 PM 42.8 °F 40.1 °F 33.8 °F 70% 30.22 in 10.0 mi SE 4.6 mph - N/A   Clear
9:15 PM 42.8 °F 41.1 °F 33.8 °F 70% 30.22 in 10.0 mi SSE 3.5 mph - N/A   Clear
9:35 PM 41.0 °F 37.1 °F 33.8 °F 76% 30.22 in 10.0 mi East 5.8 mph - N/A   Clear
9:55 PM 39.2 °F 34.2 °F 33.8 °F 81% 30.22 in 10.0 mi ESE 6.9 mph - N/A   Clear
10:15 PM 37.4 °F 33.8 °F 33.8 °F 87% 30.22 in 10.0 mi ESE 4.6 mph - N/A   Clear
10:35 PM 37.4 °F 32.8 °F 32.0 °F 81% 30.21 in 10.0 mi East 5.8 mph - N/A   Clear
11:15 PM 37.4 °F 32.8 °F 32.0 °F 81% 30.21 in 10.0 mi ESE 5.8 mph - N/A   Clear
11:35 PM 37.4 °F 32.8 °F 32.0 °F 81% 30.20 in 10.0 mi ESE 5.8 mph - N/A   Clear